RH
25 24 24 23 22 21 20 20 20 19 19 20 19 18 18 16 16 17 16 14 13 12 14 12 12 11 11 12 15 21 26 24 23 23 24 24 23 23 24 24 24 26 28 29 31
26 24 23 22 20 18 16 14 13 12 11 14 15 16 16 17 15 15 16 14 13 14 14 13 12 11 11 12 15 20 22 22 25 27 27 28 28 27 28 28 29 29 30 32 35
21 20 18 16 14 13 12 16 31 35 39 15 13 9 12 12 12 13 14 19 17 13 13 14 12 11 10 11 13 16 16 19 22 26 30 32 31 30 28 29 30 34 35 36 38
9 12 10 10 8 8 7 13 21 32 38 39 22 19 7 8 16 26 27 21 23 22 14 16 12 9 11 10 12 13 14 17 23 27 35 38 37 33 31 30 29 30 30 32 36
26 25 20 18 24 31 24 26 31 37 35 30 34 22 32 12 17 33 36 36 28 24 20 23 10 9 11 14 16 15 17 21 25 28 34 40 38 33 35 35 36 33 30 32 40
43 51 73 36 39 48 45 46 47 57 62 58 47 39 41 45 36 34 34 34 30 24 30 32 10 10 15 26 28 25 26 28 31 31 36 39 31 36 42 44 46 45 42 40 41
87 70 83 68 57 60 61 65 69 68 66 64 59 57 66 58 50 48 46 45 42 37 38 31 17 24 32 31 33 34 35 39 41 35 37 36 29 38 43 44 44 46 48 48 45
92 90 82 75 76 79 80 75 65 64 70 76 76 75 77 66 55 55 58 51 45 45 44 30 25 36 35 29 38 37 42 41 40 35 34 30 29 36 42 44 42 42 46 48 50
87 86 84 86 84 77 71 76 56 59 69 81 76 77 71 67 67 59 57 59 53 48 44 34 39 40 36 33 35 34 33 36 29 29 28 28 29 37 43 44 40 45 49 50 50
78 81 80 99 100 92 67 78 51 45 57 53 62 73 66 72 68 66 51 52 57 50 40 37 45 41 41 37 29 31 34 34 29 25 24 29 37 43 40 33 34 37 37 38 42
73 76 76 89 94 96 88 91 74 65 62 43 46 69 74 62 61 65 60 52 56 52 40 38 46 47 45 36 33 40 43 40 38 36 35 39 38 30 24 21 26 23 25 29 34
81 78 77 74 70 93 96 99 100 81 73 62 52 56 84 82 66 69 64 62 53 45 41 47 47 40 44 42 36 38 31 30 24 24 22 10 7 7 10 18 27 30 32 32 35
78 78 74 65 61 64 80 91 100 100 83 70 82 68 78 66 64 88 71 66 62 54 47 40 44 39 43 43 39 33 27 20 17 14 12 11 11 13 17 21 26 36 44 46 48
76 82 86 81 60 40 28 17 38 68 69 62 73 68 67 77 57 78 64 61 58 69 59 48 40 43 45 45 38 34 33 29 26 22 23 24 20 22 22 23 30 41 51 53 50
78 62 36 54 62 48 23 12 10 12 37 40 45 49 52 44 44 42 55 48 45 74 70 64 69 62 45 58 54 51 45 44 44 36 29 26 29 22 24 26 42 53 60 55 46
100 85 66 50 38 41 28 18 19 32 24 25 28 28 26 22 19 16 20 43 42 67 72 70 77 75 70 64 56 56 53 41 38 45 38 38 38 34 34 39 48 61 60 53 48
100 100 98 97 87 69 58 59 82 96 51 42 31 30 30 31 23 22 22 22 21 30 51 87 83 86 74 64 58 52 59 76 68 61 56 56 54 44 40 44 59 69 65 66 66
99 98 100 98 100 100 100 100 100 80 62 61 52 49 49 49 43 36 28 22 21 20 26 50 72 74 75 74 86 84 73 63 68 53 47 44 42 40 45 58 74 79 78 66 55
100 96 97 94 88 96 100 100 94 86 72 72 71 64 58 60 56 56 53 45 31 31 28 25 24 27 30 31 33 35 33 44 49 46 46 35 36 44 57 68 72 68 58 56 58
90 92 93 100 100 84 54 91 88 87 85 100 99 84 69 73 73 76 72 55 53 55 60 58 60 57 53 49 44 42 45 54 55 62 60 62 61 59 62 58 56 58 62 57 53
31 47 61 72 100 100 96 79 82 61 82 99 89 93 79 84 85 86 75 67 68 65 77 73 81 82 89 88 85 88 92 96 99 97 97 90 68 60 74 77 74 65 57 46 40
26 28 22 28 32 54 93 91 87 77 76 71 78 99 94 84 80 85 74 72 78 80 80 85 98 94 88 97 91 88 91 100 100 93 100 95 55 76 83 81 68 58 49 40 45
18 18 22 22 24 26 28 41 69 96 89 92 80 71 68 77 100 99 93 78 84 88 89 98 98 100 99 86 76 87 84 91 100 100 89 95 62 73 76 70 62 59 48 46 44
14 26 35 73 20 20 20 22 26 30 54 83 98 90 85 83 87 98 92 98 98 100 100 100 100 95 91 91 84 94 100 100 100 97 82 84 81 67 75 70 66 58 49 46 46
33 63 47 41 40 20 18 19 22 23 24 24 35 60 87 82 79 86 66 83 100 100 100 100 98 100 100 83 98 100 95 100 97 95 99 83 82 74 86 87 87 61 52 51 60
58 59 75 100 88 64 43 33 22 19 26 28 27 32 52 74 81 80 100 99 93 100 100 100 95 100 100 100 100 100 100 96 100 91 99 99 78 93 95 84 61 57 56 60 62
38 100 79 100 99 99 84 56 36 29 22 24 29 30 32 31 54 66 100 100 100 100 98 100 100 100 96 100 100 97 78 90 90 99 93 100 100 99 82 69 68 68 67 68 71
Wind_Speed
41 41 39 39 38 37 36 34 33 33 31 29 27 26 25 26 23 23 19 19 18 17 17 17 16 15 17 16 16 17 17 19 18 16 18 20 20 19 21 23 23 25 25 26 27
43 44 43 42 42 41 39 38 37 35 35 34 33 30 29 28 27 25 21 22 20 20 20 20 20 18 18 19 19 18 20 20 21 21 21 22 23 24 25 27 28 28 26 26 25
45 45 45 44 43 42 39 37 34 32 34 35 33 34 33 31 29 27 25 24 23 23 23 23 22 22 22 22 22 22 23 23 23 24 26 26 27 27 28 28 28 28 26 23 20
43 43 43 41 42 40 40 39 39 38 36 37 37 35 32 31 29 28 28 29 28 28 26 25 25 24 25 22 23 23 23 26 25 26 28 29 29 28 29 29 28 27 26 24 23
44 44 43 41 39 40 40 42 42 41 38 38 39 38 33 34 32 33 32 32 34 32 27 28 28 27 24 24 24 24 26 27 27 28 28 30 27 27 27 25 27 27 27 27 27
47 45 49 46 45 46 47 45 46 42 43 41 40 40 41 38 35 37 37 35 33 32 30 30 29 27 25 26 25 24 26 27 28 29 27 27 26 25 25 28 29 28 28 29 30
49 47 49 48 47 47 47 47 47 44 42 37 39 38 36 37 36 37 37 36 35 33 31 29 28 26 25 25 23 22 24 24 27 28 28 31 27 26 27 28 29 30 29 29 30
49 49 47 47 47 47 48 45 43 39 36 35 34 33 31 30 30 31 33 33 33 32 27 27 29 26 23 24 22 23 22 24 26 27 27 31 29 28 28 29 31 31 31 31 31
53 49 48 47 47 45 45 42 40 37 37 35 31 31 30 28 27 25 28 31 31 30 28 27 29 26 24 25 23 23 22 23 25 26 26 29 30 30 31 34 35 33 31 33 33
54 52 50 46 43 44 44 43 40 38 37 36 33 28 27 28 26 24 23 27 28 27 30 31 29 27 27 25 26 26 23 23 25 27 28 29 31 32 34 33 32 31 32 33 33
59 55 52 52 47 45 45 47 45 43 41 39 36 34 30 31 30 27 26 25 27 28 28 27 25 27 32 27 26 24 25 25 25 27 29 29 33 34 33 33 32 31 31 31 32
63 60 58 56 53 51 52 50 49 46 46 40 40 37 35 36 33 33 30 27 29 29 27 27 26 31 30 30 28 28 26 26 26 27 30 31 32 32 30 31 34 33 33 35 37
69 65 63 61 58 58 58 58 55 51 52 47 43 41 35 40 36 29 36 32 30 33 31 31 29 31 29 28 26 27 26 28 28 28 30 32 36 35 34 35 36 37 37 39 42
72 72 68 66 65 63 61 62 62 59 61 59 49 51 43 43 44 34 37 34 34 35 37 36 31 32 32 30 30 31 30 29 30 31 34 36 37 37 38 39 39 40 42 44 43
76 76 73 71 71 69 66 63 62 60 66 64 63 56 52 48 50 42 41 43 37 36 41 40 39 38 37 34 36 32 32 30 31 35 39 40 40 41 41 41 41 43 44 43 45
84 78 77 75 73 71 69 67 65 62 74 69 71 68 62 56 54 54 46 45 41 41 38 40 43 42 39 36 37 34 32 32 36 39 45 43 43 49 45 42 43 43 44 45 47
77 79 81 79 76 72 71 65 62 58 76 75 74 74 69 61 57 52 49 43 42 47 47 41 40 39 38 37 38 38 38 43 47 48 52 52 50 52 47 44 45 45 45 48 51
74 73 72 71 73 77 69 73 69 74 75 74 75 76 72 69 63 57 55 54 50 47 49 50 50 46 44 44 44 45 49 51 50 52 54 51 56 52 47 46 48 50 49 51 54
74 73 71 63 60 63 65 56 65 68 71 74 77 79 79 76 72 64 63 59 59 55 54 52 53 52 50 50 49 50 51 48 50 52 52 54 54 51 47 45 50 51 53 56 59
78 78 72 67 68 62 65 68 70 60 52 53 56 61 64 67 66 57 55 58 54 51 52 54 54 55 55 54 55 53 48 49 51 51 51 55 54 50 49 53 51 49 54 54 55
76 78 75 73 74 77 76 75 68 68 63 64 66 66 64 65 66 67 66 63 60 59 53 53 53 55 54 55 52 51 52 51 50 51 50 47 48 54 55 52 51 50 51 53 54
75 77 75 73 76 78 80 78 73 71 68 63 64 64 65 64 62 63 60 60 60 56 57 51 50 49 50 49 51 53 50 51 53 51 49 53 53 55 52 48 47 50 52 54 53
71 66 74 77 80 78 75 72 72 72 72 65 60 61 61 64 66 64 61 59 59 57 54 51 52 50 47 54 57 49 50 53 56 54 55 55 54 51 50 46 47 50 52 51 50
65 65 62 64 79 78 74 73 70 68 68 68 67 63 60 59 59 53 52 52 54 53 54 51 53 55 60 62 55 51 50 53 55 52 52 55 52 50 46 46 48 51 52 50 49
55 55 61 64 68 74 72 72 71 68 67 65 63 62 61 59 59 61 58 54 47 48 50 56 60 58 58 58 56 52 56 57 53 52 58 52 54 48 45 47 50 51 50 49 47
57 55 48 47 49 55 59 61 64 66 66 66 63 58 58 61 59 54 33 53 56 48 46 47 57 54 59 52 53 48 48 47 50 51 55 57 52 48 45 47 49 49 48 48 52
56 47 52 39 33 54 47 46 54 57 64 63 62 61 62 57 59 57 55 34 47 48 52 55 46 48 55 52 50 57 51 50 48 50 52 55 52 45 45 49 48 49 49 48 48
Wind_Direction
259 261 260 260 261 263 265 265 267 269 268 268 266 267 265 267 263 264 262 266 267 270 266 265 261 256 258 250 248 249 256 267 269 275 281 283 284 284 282 280 279 280 284 291 298
259 260 260 261 262 262 261 264 265 269 272 273 272 269 267 267 268 270 265 270 269 271 269 264 262 254 252 253 248 250 252 260 268 269 271 275 277 275 279 284 287 288 293 299 300
259 261 262 261 261 262 260 262 264 269 274 277 275 274 270 267 267 270 272 270 272 274 271 268 264 259 251 249 248 246 249 252 257 267 271 269 269 277 280 279 284 286 291 294 291
260 260 259 261 262 261 263 261 265 270 272 272 273 272 270 265 264 268 269 268 273 276 269 267 265 257 255 253 249 247 248 251 254 260 269 275 275 277 281 286 284 280 282 288 285
261 262 263 262 261 265 265 266 268 269 270 268 268 265 266 263 261 268 273 272 268 267 266 266 259 256 254 252 247 246 251 252 256 260 267 272 279 282 282 286 288 287 286 287 286
259 259 264 263 263 266 266 266 266 268 268 267 264 263 266 264 266 267 267 266 262 261 261 264 258 253 254 253 250 244 247 252 259 260 261 261 271 274 281 285 287 284 282 281 280
258 258 259 260 263 264 265 268 269 268 265 263 263 263 265 263 263 264 262 258 258 258 261 257 252 252 256 259 258 247 249 257 258 260 256 259 264 265 271 280 287 290 291 286 286
254 256 256 257 260 263 266 266 266 265 260 260 261 260 256 260 260 262 259 258 256 257 253 252 252 246 247 252 252 251 248 256 257 255 254 256 262 267 273 281 287 286 287 288 286
256 254 256 253 257 261 262 262 261 259 260 257 255 255 254 254 256 267 263 255 255 257 253 250 247 242 240 249 250 255 254 254 257 251 249 252 260 265 271 279 283 280 281 281 282
253 253 255 252 253 255 257 257 254 257 254 254 254 249 248 252 260 267 264 263 257 254 253 251 244 243 245 248 251 251 255 255 258 253 249 254 260 268 276 277 276 278 281 282 285
252 251 252 251 251 251 254 250 254 254 252 248 249 246 253 255 258 263 263 260 255 255 252 252 247 243 243 253 257 257 255 255 258 259 258 264 271 274 275 276 274 280 282 282 281
250 251 251 251 251 245 246 245 250 253 247 248 247 247 251 253 255 254 255 259 255 254 255 251 249 247 251 253 254 254 255 256 256 256 261 269 274 278 283 282 280 280 279 279 279
252 251 251 250 248 245 245 250 249 248 249 238 244 244 243 251 252 252 255 255 257 256 255 251 250 254 253 250 251 253 256 258 264 267 269 272 276 284 287 287 286 284 283 280 280
251 251 250 251 250 249 247 249 256 255 248 248 238 244 244 246 251 252 260 262 258 257 256 255 256 252 251 251 253 255 259 263 268 271 275 276 279 283 286 287 287 286 283 283 283
247 250 251 248 249 249 251 253 254 259 255 257 253 244 246 246 256 253 256 259 264 257 252 253 253 256 255 254 255 258 261 264 268 272 275 276 282 283 284 286 286 284 283 281 283
246 245 247 249 250 250 250 252 254 255 249 252 255 256 252 252 251 256 253 254 257 255 252 254 257 255 256 256 256 255 262 269 270 273 270 276 283 281 286 286 282 280 278 280 282
247 250 249 245 246 247 249 250 248 247 245 248 251 258 260 256 251 251 255 256 256 255 256 258 256 254 253 258 260 263 269 273 271 271 276 280 280 281 286 284 282 280 278 280 286
248 246 244 246 249 248 247 245 241 245 248 252 253 255 260 260 256 253 253 253 255 256 257 257 259 261 262 264 267 268 269 273 275 280 282 280 280 286 285 281 278 278 283 286 287
254 254 250 250 256 256 252 244 248 251 252 253 256 258 260 262 264 262 257 255 253 253 255 256 257 261 263 264 263 265 266 272 272 271 270 275 279 282 278 276 278 282 285 288 290
255 254 250 252 247 244 248 251 248 246 242 244 242 247 253 257 259 258 260 261 258 254 253 259 263 262 261 262 262 263 266 264 264 264 269 273 278 277 276 279 283 286 287 287 289
245 246 250 250 248 245 242 248 251 254 245 244 244 245 250 252 256 259 262 262 259 259 259 262 262 262 262 259 261 262 264 263 259 261 266 270 269 274 279 280 283 284 286 290 292
245 245 242 239 240 243 246 249 251 250 248 243 240 243 246 248 251 256 258 259 262 261 263 262 256 257 263 249 252 257 256 254 256 262 264 265 273 277 278 280 281 285 288 291 291
248 248 245 240 240 241 242 244 245 245 245 243 243 245 248 248 248 250 253 255 257 257 255 256 256 248 243 243 259 261 265 258 257 258 260 267 276 274 275 277 277 283 287 289 291
247 245 241 244 242 241 241 242 241 242 243 245 243 240 236 241 243 244 249 251 251 251 253 253 250 241 246 256 260 256 258 252 258 258 268 271 266 272 276 275 281 285 288 289 289
242 242 245 243 245 245 245 245 241 239 240 241 242 244 243 239 238 246 248 253 242 244 244 242 242 251 249 255 258 254 258 257 252 269 273 270 265 270 273 278 283 284 285 285 285
240 239 238 246 242 245 247 247 244 238 237 237 241 240 242 242 243 244 255 243 245 250 248 261 255 258 261 259 253 256 250 253 266 269 277 273 268 268 271 277 278 280 281 282 285
238 229 225 223 229 236 243 240 242 239 237 235 237 237 238 238 237 232 235 232 238 240 241 247 241 254 251 260 265 263 255 266 273 268 280 267 266 270 276 275 279 281 283 287 291